JBU329 KVRB-KJFK

Flight info

Callsign JBU329
Flight time 2h 10m
Altitude 35000
Route SOPHA ETECK PELCN Y309 FLRDA SAGGY CHIEZ Q161 KALDA Q108 SIE CAMRN5
Aircraft A320/M-SDE3FGHIRWY/LB1

Departure

Time 2026-05-06 20:28
Airport Vero Beach Regional Airport (KVRB)

Arrival

Time 2026-05-06 22:38
Airport John F. Kennedy International Airport (KJFK)
Time Latitude Longitude Altitude Speed Heading
2026-05-06 20:11 27.65223 -80.41808 41 ft 0 kts 200°
2026-05-06 20:19 27.65228 -80.41806 32 ft 2 kts 200°
2026-05-06 20:19 27.65244 -80.41800 30 ft 2 kts 200°
2026-05-06 20:19 27.65260 -80.41793 32 ft 2 kts 206°
2026-05-06 20:20 27.65271 -80.41781 29 ft 2 kts 263°
2026-05-06 20:20 27.65273 -80.41762 29 ft 2 kts 268°
2026-05-06 20:20 27.65272 -80.41747 29 ft 0 kts 289°
2026-05-06 20:23 27.65277 -80.41761 32 ft 8 kts 292°
2026-05-06 20:24 27.65302 -80.41831 34 ft 10 kts 291°
2026-05-06 20:24 27.65331 -80.41919 35 ft 15 kts 287°
2026-05-06 20:24 27.65374 -80.42050 33 ft 20 kts 291°
2026-05-06 20:24 27.65419 -80.42180 33 ft 18 kts 291°
2026-05-06 20:25 27.65463 -80.42311 33 ft 13 kts 304°
2026-05-06 20:25 27.65514 -80.42402 32 ft 14 kts 297°
2026-05-06 20:25 27.65549 -80.42509 31 ft 15 kts 289°
2026-05-06 20:25 27.65586 -80.42624 32 ft 16 kts 290°
2026-05-06 20:26 27.65630 -80.42750 31 ft 19 kts 292°
2026-05-06 20:26 27.65672 -80.42870 31 ft 10 kts 289°
2026-05-06 20:26 27.65720 -80.42880 32 ft 7 kts 20°
2026-05-06 20:26 27.65764 -80.42855 33 ft 8 kts 49°
2026-05-06 20:27 27.65761 -80.42786 31 ft 7 kts 111°
2026-05-06 20:27 27.65750 -80.42753 31 ft 5 kts 111°
2026-05-06 20:27 27.65729 -80.42691 30 ft 19 kts 110°
2026-05-06 20:27 27.65603 -80.42298 30 ft 88 kts 111°
2026-05-06 20:28 27.65312 -80.41449 35 ft 142 kts 110°
2026-05-06 20:28 27.64923 -80.40297 258 ft 169 kts 109°
2026-05-06 20:28 27.64503 -80.39027 887 ft 176 kts 108°
2026-05-06 20:28 27.64090 -80.37718 1555 ft 179 kts 108°
2026-05-06 20:29 27.63683 -80.36388 2129 ft 183 kts 108°
2026-05-06 20:29 27.63254 -80.34938 2384 ft 205 kts 108°
2026-05-06 20:29 27.62794 -80.33338 2687 ft 226 kts 108°
2026-05-06 20:29 27.62291 -80.31557 2989 ft 250 kts 108°
2026-05-06 20:30 27.61754 -80.29609 3482 ft 268 kts 108°
2026-05-06 20:30 27.60667 -80.25497 5043 ft 279 kts 105°
2026-05-06 20:30 27.60503 -80.23319 5833 ft 282 kts 82°
2026-05-06 20:31 27.61118 -80.21240 6643 ft 280 kts 57°
2026-05-06 20:31 27.62397 -80.19605 7410 ft 279 kts 39°
2026-05-06 20:31 27.63875 -80.18175 8175 ft 280 kts 39°
2026-05-06 20:31 27.65358 -80.16745 8929 ft 281 kts 39°
2026-05-06 20:32 27.66855 -80.15294 9608 ft 286 kts 39°
2026-05-06 20:32 27.68371 -80.13820 10218 ft 293 kts 39°
2026-05-06 20:32 27.69974 -80.12263 10351 ft 315 kts 39°
2026-05-06 20:32 27.71695 -80.10591 10472 ft 336 kts 39°
2026-05-06 20:33 27.73508 -80.08824 10644 ft 352 kts 39°
2026-05-06 20:33 27.75376 -80.06997 11067 ft 358 kts 39°
2026-05-06 20:33 27.77267 -80.05149 11610 ft 361 kts 39°
2026-05-06 20:33 27.79171 -80.03285 12180 ft 363 kts 39°
2026-05-06 20:34 27.81086 -80.01416 12752 ft 365 kts 38°
2026-05-06 20:34 27.83049 -79.99590 13317 ft 367 kts 37°
2026-05-06 20:34 27.85058 -79.97796 13872 ft 368 kts 36°
2026-05-06 20:34 27.87087 -79.96015 14348 ft 371 kts 36°
2026-05-06 20:35 27.89135 -79.94220 14798 ft 374 kts 36°
2026-05-06 20:35 27.91197 -79.92402 15230 ft 377 kts 36°
2026-05-06 20:35 27.93270 -79.90561 15666 ft 381 kts 36°
2026-05-06 20:35 27.95358 -79.88698 16104 ft 384 kts 36°
2026-05-06 20:36 27.97469 -79.86809 16544 ft 387 kts 35°
2026-05-06 20:36 27.99591 -79.84907 16980 ft 391 kts 35°
2026-05-06 20:36 28.01729 -79.82988 17386 ft 395 kts 35°
2026-05-06 20:36 28.03890 -79.81043 17813 ft 398 kts 35°
2026-05-06 20:37 28.06036 -79.79113 18237 ft 401 kts 34°
2026-05-06 20:37 28.08229 -79.77144 18645 ft 404 kts 34°
2026-05-06 20:37 28.10437 -79.75157 19035 ft 406 kts 34°
2026-05-06 20:37 28.12656 -79.73158 19416 ft 409 kts 34°
2026-05-06 20:38 28.14893 -79.71145 19793 ft 412 kts 34°
2026-05-06 20:38 28.17143 -79.69119 20169 ft 414 kts 34°
2026-05-06 20:38 28.19406 -79.67080 20546 ft 417 kts 34°
2026-05-06 20:38 28.21690 -79.65020 20908 ft 420 kts 34°
2026-05-06 20:39 28.23983 -79.62949 21268 ft 422 kts 34°
2026-05-06 20:39 28.26287 -79.60867 21621 ft 425 kts 33°
2026-05-06 20:39 28.28589 -79.58787 21974 ft 428 kts 33°
2026-05-06 20:39 28.30929 -79.56676 22300 ft 432 kts 33°
2026-05-06 20:40 28.33284 -79.54545 22635 ft 434 kts 33°
2026-05-06 20:40 28.35655 -79.52403 22960 ft 437 kts 33°
2026-05-06 20:40 28.38039 -79.50250 23293 ft 439 kts 33°
2026-05-06 20:40 28.40436 -79.48084 23613 ft 442 kts 33°
2026-05-06 20:41 28.42851 -79.45901 23884 ft 444 kts 33°
2026-05-06 20:41 28.45272 -79.43705 24156 ft 446 kts 33°
2026-05-06 20:41 28.47699 -79.41494 24431 ft 448 kts 33°
2026-05-06 20:41 28.50137 -79.39275 24720 ft 450 kts 33°
2026-05-06 20:42 28.52584 -79.37046 24996 ft 452 kts 33°
2026-05-06 20:42 28.55044 -79.34807 25280 ft 454 kts 33°
2026-05-06 20:42 28.57515 -79.32561 25532 ft 456 kts 33°
2026-05-06 20:42 28.60003 -79.30296 25803 ft 458 kts 33°
2026-05-06 20:43 28.62497 -79.28027 26083 ft 460 kts 33°
2026-05-06 20:43 28.65004 -79.25748 26357 ft 462 kts 33°
2026-05-06 20:43 28.67524 -79.23453 26650 ft 464 kts 33°
2026-05-06 20:43 28.70034 -79.21159 27049 ft 463 kts 32°
2026-05-06 20:44 28.72541 -79.18867 27451 ft 462 kts 32°
2026-05-06 20:44 28.75045 -79.16578 27847 ft 461 kts 32°
2026-05-06 20:44 28.77544 -79.14290 28257 ft 461 kts 32°
2026-05-06 20:44 28.80039 -79.12003 28673 ft 460 kts 32°
2026-05-06 20:45 28.82531 -79.09718 29091 ft 460 kts 32°
2026-05-06 20:45 28.85023 -79.07435 29490 ft 460 kts 32°
2026-05-06 20:45 28.87513 -79.05153 29913 ft 459 kts 31°
2026-05-06 20:45 28.90001 -79.02872 30357 ft 457 kts 31°
2026-05-06 20:46 28.92475 -79.00602 30768 ft 455 kts 31°
2026-05-06 20:46 28.94945 -78.98337 31167 ft 454 kts 31°
2026-05-06 20:46 28.97403 -78.96083 31562 ft 453 kts 31°
2026-05-06 20:46 28.99858 -78.93830 31948 ft 451 kts 31°
2026-05-06 20:47 29.02301 -78.91582 32350 ft 450 kts 31°
2026-05-06 20:47 29.04740 -78.89337 32748 ft 449 kts 31°
2026-05-06 20:47 29.07168 -78.87102 33145 ft 448 kts 31°
2026-05-06 20:47 29.09595 -78.84863 33573 ft 447 kts 30°
2026-05-06 20:48 29.11987 -78.82652 33957 ft 446 kts 30°
2026-05-06 20:48 29.14399 -78.80426 34293 ft 445 kts 30°
2026-05-06 20:48 29.16807 -78.78201 34595 ft 445 kts 30°
2026-05-06 20:48 29.19216 -78.75975 34872 ft 445 kts 30°
2026-05-06 20:49 29.21626 -78.73748 35044 ft 445 kts 30°
2026-05-06 20:49 29.26516 -78.69238 35090 ft 458 kts 30°
2026-05-06 20:50 29.31499 -78.64616 35095 ft 462 kts 30°
2026-05-06 20:50 29.36496 -78.59971 35094 ft 462 kts 30°
2026-05-06 20:51 29.41496 -78.55314 35092 ft 463 kts 30°
2026-05-06 20:51 29.46579 -78.50839 35093 ft 453 kts 21°
2026-05-06 20:51 29.49332 -78.49273 35093 ft 441 kts 12°
2026-05-06 20:52 29.52226 -78.48262 35091 ft 430 kts
2026-05-06 20:52 29.58090 -78.47340 35089 ft 425 kts 359°
2026-05-06 20:53 29.63966 -78.46467 35115 ft 426 kts 359°
2026-05-06 20:53 29.69842 -78.45595 35111 ft 426 kts 359°
2026-05-06 20:54 29.75718 -78.44721 35105 ft 426 kts 359°
2026-05-06 20:54 29.81589 -78.43849 35103 ft 425 kts 359°
2026-05-06 20:55 29.87462 -78.42973 35107 ft 426 kts 359°
2026-05-06 20:55 29.92352 -78.42244 35127 ft 425 kts 359°
2026-05-06 20:56 29.98214 -78.41372 35119 ft 424 kts 359°
2026-05-06 20:56 30.05056 -78.40360 35115 ft 424 kts 359°
2026-05-06 20:57 30.09918 -78.39631 35112 ft 424 kts 359°
2026-05-06 20:57 30.15766 -78.38750 35111 ft 424 kts 359°
2026-05-06 20:58 30.21609 -78.37881 35109 ft 423 kts 359°
2026-05-06 20:58 30.27419 -78.37021 35107 ft 423 kts 359°
2026-05-06 20:59 30.33270 -78.36141 35106 ft 424 kts 359°
2026-05-06 20:59 30.39112 -78.35260 35105 ft 424 kts 359°
2026-05-06 21:00 30.44958 -78.34278 35122 ft 426 kts
2026-05-06 21:00 30.50792 -78.32913 35120 ft 429 kts
2026-05-06 21:01 30.56621 -78.31435 35116 ft 428 kts
2026-05-06 21:01 30.62442 -78.30032 35112 ft 427 kts
2026-05-06 21:02 30.68265 -78.28688 35107 ft 426 kts
2026-05-06 21:02 30.74091 -78.27338 35129 ft 427 kts
2026-05-06 21:03 30.79904 -78.25969 35124 ft 426 kts
2026-05-06 21:03 30.85706 -78.24605 35120 ft 425 kts
2026-05-06 21:04 30.91503 -78.23234 35111 ft 425 kts
2026-05-06 21:04 30.97306 -78.21884 35107 ft 424 kts
2026-05-06 21:05 31.03107 -78.20611 35124 ft 423 kts
2026-05-06 21:05 31.08897 -78.19354 35120 ft 423 kts
2026-05-06 21:06 31.14647 -78.18080 35113 ft 423 kts
2026-05-06 21:06 31.20425 -78.16788 35109 ft 423 kts
2026-05-06 21:07 31.26205 -78.15491 35127 ft 423 kts
2026-05-06 21:07 31.31991 -78.14205 35114 ft 422 kts
2026-05-06 21:08 31.37769 -78.12921 35107 ft 422 kts
2026-05-06 21:08 31.43542 -78.11620 35100 ft 422 kts
2026-05-06 21:09 31.49314 -78.10535 35097 ft 419 kts 358°
2026-05-06 21:09 31.55049 -78.09631 35116 ft 418 kts 357°
2026-05-06 21:10 31.60825 -78.08717 35106 ft 419 kts 358°
2026-05-06 21:10 31.66609 -78.07741 35097 ft 420 kts 358°
2026-05-06 21:11 31.72407 -78.06729 35091 ft 420 kts 358°
2026-05-06 21:11 31.78194 -78.05728 35086 ft 420 kts 358°
2026-05-06 21:12 31.83986 -78.04734 35090 ft 421 kts 358°
2026-05-06 21:12 31.89787 -78.03741 35084 ft 421 kts 358°
2026-05-06 21:13 31.95596 -78.02745 35078 ft 422 kts 358°
2026-05-06 21:13 32.01374 -78.01747 35078 ft 422 kts 358°
2026-05-06 21:14 32.07186 -78.00735 35101 ft 423 kts 358°
2026-05-06 21:14 32.13010 -77.99718 35082 ft 423 kts 358°
2026-05-06 21:15 32.18843 -77.98714 35074 ft 424 kts 358°
2026-05-06 21:15 32.24684 -77.97707 35072 ft 424 kts 358°
2026-05-06 21:16 32.30528 -77.96688 35070 ft 425 kts 358°
2026-05-06 21:16 32.36383 -77.95668 35089 ft 425 kts 358°
2026-05-06 21:17 32.42235 -77.94645 35086 ft 425 kts 358°
2026-05-06 21:17 32.48090 -77.93627 35080 ft 424 kts 358°
2026-05-06 21:18 32.53933 -77.92610 35080 ft 424 kts 358°
2026-05-06 21:18 32.59774 -77.91587 35092 ft 424 kts 359°
2026-05-06 21:19 32.65623 -77.90560 35081 ft 425 kts 359°
2026-05-06 21:19 32.71443 -77.89537 35067 ft 426 kts 359°
2026-05-06 21:20 32.77306 -77.88510 35062 ft 426 kts 359°
2026-05-06 21:20 32.83174 -77.87483 35061 ft 426 kts 359°
2026-05-06 21:21 32.89044 -77.86450 35060 ft 426 kts 359°
2026-05-06 21:21 32.94914 -77.85410 35061 ft 427 kts 359°
2026-05-06 21:22 33.00791 -77.84371 35061 ft 427 kts 359°
2026-05-06 21:22 33.06631 -77.83340 35063 ft 427 kts 359°
2026-05-06 21:23 33.12515 -77.82309 35067 ft 428 kts 359°
2026-05-06 21:23 33.18424 -77.81275 35050 ft 429 kts 359°
2026-05-06 21:24 33.24334 -77.80225 35048 ft 430 kts 359°
2026-05-06 21:24 33.30260 -77.79167 35045 ft 431 kts 359°
2026-05-06 21:25 33.36187 -77.78106 35060 ft 431 kts 359°
2026-05-06 21:25 33.42092 -77.77052 35043 ft 432 kts 359°
2026-05-06 21:26 33.48050 -77.75997 35038 ft 433 kts 359°
2026-05-06 21:26 33.54023 -77.74926 35042 ft 434 kts 359°
2026-05-06 21:27 33.60002 -77.73846 35044 ft 434 kts 359°
2026-05-06 21:27 33.65984 -77.72773 35047 ft 436 kts 359°
2026-05-06 21:28 33.71990 -77.71657 35034 ft 438 kts
2026-05-06 21:28 33.78015 -77.70331 35028 ft 441 kts
2026-05-06 21:29 33.84051 -77.68945 35039 ft 441 kts
2026-05-06 21:29 33.90057 -77.67611 35049 ft 441 kts
2026-05-06 21:30 33.96110 -77.66298 35044 ft 442 kts
2026-05-06 21:30 34.02157 -77.64986 35037 ft 442 kts
2026-05-06 21:31 34.08219 -77.63664 35027 ft 442 kts
2026-05-06 21:31 34.14281 -77.62331 35048 ft 442 kts
2026-05-06 21:32 34.20338 -77.61002 35051 ft 442 kts
2026-05-06 21:32 34.29415 -77.59001 35047 ft 442 kts
2026-05-06 21:33 34.35418 -77.57675 35044 ft 441 kts
2026-05-06 21:33 34.41449 -77.56343 35053 ft 440 kts
2026-05-06 21:34 34.47467 -77.55014 35028 ft 439 kts
2026-05-06 21:34 34.53430 -77.53097 35003 ft 456 kts 15°
2026-05-06 21:35 34.59171 -77.49680 34991 ft 460 kts 17°
2026-05-06 21:35 34.64910 -77.46235 34990 ft 460 kts 16°
2026-05-06 21:36 34.70613 -77.42817 34984 ft 460 kts 16°
2026-05-06 21:36 34.76358 -77.39369 34981 ft 460 kts 17°
2026-05-06 21:37 34.82102 -77.35915 34988 ft 460 kts 17°
2026-05-06 21:37 34.87847 -77.32454 35015 ft 460 kts 17°
2026-05-06 21:38 34.93588 -77.28997 35033 ft 460 kts 17°
2026-05-06 21:38 34.99328 -77.25537 35026 ft 460 kts 17°
2026-05-06 21:39 35.05033 -77.22083 35029 ft 461 kts 17°
2026-05-06 21:39 35.10766 -77.18602 35039 ft 460 kts 17°
2026-05-06 21:40 35.16499 -77.15124 35015 ft 460 kts 17°
2026-05-06 21:40 35.22236 -77.11628 35005 ft 460 kts 17°
2026-05-06 21:41 35.27973 -77.08139 34993 ft 460 kts 17°
2026-05-06 21:41 35.33707 -77.04648 34988 ft 461 kts 17°
2026-05-06 21:42 35.39451 -77.01146 34981 ft 461 kts 17°
2026-05-06 21:42 35.45191 -76.97635 34981 ft 461 kts 17°
2026-05-06 21:43 35.50928 -76.94114 34972 ft 461 kts 17°
2026-05-06 21:43 35.55699 -76.91182 34996 ft 461 kts 15°
2026-05-06 21:44 35.61448 -76.87659 34980 ft 462 kts 15°
2026-05-06 21:44 35.67213 -76.84167 34989 ft 461 kts 15°
2026-05-06 21:45 35.72959 -76.80681 34995 ft 460 kts 15°
2026-05-06 21:45 35.78694 -76.77196 35009 ft 459 kts 15°
2026-05-06 21:46 35.84427 -76.73695 34994 ft 459 kts 15°
2026-05-06 21:46 35.90112 -76.70201 34980 ft 459 kts 15°
2026-05-06 21:47 35.95802 -76.66537 34974 ft 463 kts 17°
2026-05-06 21:47 36.01447 -76.62657 34997 ft 464 kts 18°
2026-05-06 21:48 36.07097 -76.58760 34965 ft 465 kts 18°
2026-05-06 21:48 36.12776 -76.54914 34954 ft 465 kts 17°
2026-05-06 21:49 36.18440 -76.51100 34952 ft 466 kts 18°
2026-05-06 21:49 36.24138 -76.47246 34965 ft 466 kts 18°
2026-05-06 21:50 36.29833 -76.43379 34959 ft 467 kts 18°
2026-05-06 21:50 36.35526 -76.39501 34959 ft 467 kts 18°
2026-05-06 21:51 36.41233 -76.35599 34960 ft 467 kts 18°
2026-05-06 21:51 36.46895 -76.31726 34983 ft 468 kts 18°
2026-05-06 21:52 36.52601 -76.27827 34950 ft 469 kts 18°
2026-05-06 21:52 36.58321 -76.23908 34920 ft 470 kts 19°
2026-05-06 21:53 36.64053 -76.19972 34927 ft 471 kts 19°
2026-05-06 21:53 36.69790 -76.16027 34929 ft 472 kts 18°
2026-05-06 21:54 36.75546 -76.12069 34913 ft 473 kts 18°
2026-05-06 21:54 36.81311 -76.08093 34900 ft 473 kts 19°
2026-05-06 21:55 36.87072 -76.04108 34905 ft 474 kts 19°
2026-05-06 21:55 36.92838 -76.00107 34929 ft 474 kts 18°
2026-05-06 21:56 36.98606 -75.96107 34919 ft 474 kts 18°
2026-05-06 21:56 37.04382 -75.92098 34911 ft 475 kts 18°
2026-05-06 21:57 37.10247 -75.88509 34908 ft 457 kts
2026-05-06 21:57 37.16318 -75.86387 34912 ft 453 kts
2026-05-06 21:58 37.22365 -75.84298 34903 ft 454 kts
2026-05-06 21:58 37.28455 -75.82172 34897 ft 454 kts
2026-05-06 21:59 37.34552 -75.80044 34927 ft 455 kts
2026-05-06 21:59 37.40667 -75.77919 34890 ft 457 kts
2026-05-06 22:00 37.46804 -75.75789 34888 ft 458 kts
2026-05-06 22:00 37.52961 -75.73636 34894 ft 459 kts
2026-05-06 22:01 37.59124 -75.71468 34901 ft 460 kts
2026-05-06 22:01 37.65296 -75.69297 34903 ft 460 kts
2026-05-06 22:02 37.71430 -75.67136 34906 ft 460 kts
2026-05-06 22:02 37.77604 -75.64965 34926 ft 461 kts
2026-05-06 22:03 37.83757 -75.62544 34918 ft 473 kts 14°
2026-05-06 22:03 37.86695 -75.60528 34916 ft 488 kts 24°
2026-05-06 22:03 37.89502 -75.58091 34915 ft 490 kts 25°
2026-05-06 22:04 37.95115 -75.53172 34913 ft 491 kts 25°
2026-05-06 22:04 38.00735 -75.48250 34901 ft 491 kts 25°
2026-05-06 22:05 38.06388 -75.43322 34875 ft 493 kts 24°
2026-05-06 22:05 38.12124 -75.38579 34889 ft 491 kts 22°
2026-05-06 22:06 38.17868 -75.33997 34893 ft 491 kts 22°
2026-05-06 22:06 38.23706 -75.29552 34907 ft 481 kts 14°
2026-05-06 22:07 38.26774 -75.28015 34901 ft 468 kts
2026-05-06 22:07 38.29899 -75.27093 34897 ft 455 kts 357°
2026-05-06 22:07 38.36159 -75.25811 34894 ft 456 kts 357°
2026-05-06 22:08 38.42432 -75.24505 34929 ft 457 kts 356°
2026-05-06 22:08 38.48729 -75.23169 34906 ft 459 kts 356°
2026-05-06 22:09 38.55035 -75.21845 34892 ft 459 kts 356°
2026-05-06 22:09 38.61348 -75.20522 34887 ft 460 kts 356°
2026-05-06 22:10 38.67666 -75.19065 34901 ft 471 kts
2026-05-06 22:10 38.70808 -75.17584 34893 ft 490 kts 14°
2026-05-06 22:10 38.73793 -75.15299 34885 ft 509 kts 26°
2026-05-06 22:11 38.79428 -75.09738 34875 ft 512 kts 27°
2026-05-06 22:11 38.85076 -75.04168 34900 ft 512 kts 27°
2026-05-06 22:12 38.90741 -74.98610 34897 ft 513 kts 27°
2026-05-06 22:12 38.96413 -74.93041 34894 ft 513 kts 27°
2026-05-06 22:13 39.02055 -74.87470 34895 ft 514 kts 27°
2026-05-06 22:13 39.07731 -74.81849 34901 ft 514 kts 27°
2026-05-06 22:14 39.10574 -74.79020 34419 ft 519 kts 27°
2026-05-06 22:14 39.13445 -74.76076 33226 ft 534 kts 29°
2026-05-06 22:14 39.16314 -74.73003 32280 ft 539 kts 31°
2026-05-06 22:14 39.19169 -74.69848 31572 ft 539 kts 32°
2026-05-06 22:15 39.21999 -74.66680 30769 ft 539 kts 32°
2026-05-06 22:15 39.24843 -74.63514 29968 ft 540 kts 32°
2026-05-06 22:15 39.27709 -74.60365 28941 ft 541 kts 32°
2026-05-06 22:15 39.30593 -74.57233 27903 ft 542 kts 32°
2026-05-06 22:16 39.33488 -74.54107 26890 ft 543 kts 32°
2026-05-06 22:16 39.36374 -74.50991 26072 ft 539 kts 32°
2026-05-06 22:16 39.39244 -74.47880 25231 ft 537 kts 32°
2026-05-06 22:16 39.42090 -74.44785 24479 ft 532 kts 32°
2026-05-06 22:17 39.44905 -74.41713 23744 ft 527 kts 32°
2026-05-06 22:17 39.47693 -74.38660 22905 ft 523 kts 33°
2026-05-06 22:17 39.50453 -74.35631 22074 ft 516 kts 33°
2026-05-06 22:17 39.53169 -74.32648 21359 ft 508 kts 34°
2026-05-06 22:18 39.55844 -74.29707 20664 ft 501 kts 34°
2026-05-06 22:18 39.58475 -74.26818 20238 ft 488 kts 34°
2026-05-06 22:18 39.61019 -74.24018 20041 ft 474 kts 34°
2026-05-06 22:18 39.63525 -74.21267 19854 ft 470 kts 34°
2026-05-06 22:19 39.66016 -74.18539 19658 ft 467 kts 34°
2026-05-06 22:19 39.68495 -74.15825 19469 ft 465 kts 34°
2026-05-06 22:19 39.70965 -74.13114 19246 ft 464 kts 34°
2026-05-06 22:19 39.73420 -74.10414 18956 ft 462 kts 35°
2026-05-06 22:20 39.75850 -74.07731 18458 ft 456 kts 35°
2026-05-06 22:20 39.78249 -74.05071 17906 ft 452 kts 36°
2026-05-06 22:20 39.80609 -74.02454 17421 ft 450 kts 36°
2026-05-06 22:20 39.82988 -73.99831 16895 ft 447 kts 34°
2026-05-06 22:21 39.85527 -73.97571 16391 ft 438 kts 24°
2026-05-06 22:21 39.88194 -73.95689 15880 ft 435 kts 23°
2026-05-06 22:21 39.90841 -73.93825 15288 ft 431 kts 23°
2026-05-06 22:21 39.93471 -73.91971 14675 ft 428 kts 23°
2026-05-06 22:22 39.96081 -73.90127 14071 ft 426 kts 23°
2026-05-06 22:22 39.98676 -73.88287 13431 ft 424 kts 23°
2026-05-06 22:22 40.01257 -73.86452 12786 ft 421 kts 23°
2026-05-06 22:22 40.03844 -73.84705 12135 ft 416 kts 21°
2026-05-06 22:23 40.06425 -73.83020 11528 ft 415 kts 25°
2026-05-06 22:23 40.08858 -73.81081 11288 ft 402 kts 27°
2026-05-06 22:23 40.11183 -73.79170 11170 ft 387 kts 27°
2026-05-06 22:23 40.13421 -73.77317 11012 ft 376 kts 27°
2026-05-06 22:24 40.15572 -73.75524 11015 ft 356 kts 27°
2026-05-06 22:24 40.17606 -73.73810 10936 ft 344 kts 27°
2026-05-06 22:24 40.19601 -73.72122 10684 ft 339 kts 27°
2026-05-06 22:24 40.21573 -73.70447 10421 ft 336 kts 27°
2026-05-06 22:25 40.23530 -73.68782 10160 ft 334 kts 27°
2026-05-06 22:25 40.25480 -73.67120 9892 ft 332 kts 27°
2026-05-06 22:25 40.27410 -73.65474 9604 ft 331 kts 27°
2026-05-06 22:25 40.29341 -73.63830 9276 ft 330 kts 27°
2026-05-06 22:26 40.31262 -73.62204 8970 ft 328 kts 27°
2026-05-06 22:26 40.33174 -73.60591 8662 ft 326 kts 27°
2026-05-06 22:26 40.35053 -73.59007 8364 ft 324 kts 27°
2026-05-06 22:26 40.36941 -73.57419 8066 ft 322 kts 27°
2026-05-06 22:27 40.38817 -73.55841 7791 ft 319 kts 27°
2026-05-06 22:27 40.40677 -73.54275 7499 ft 317 kts 27°
2026-05-06 22:27 40.42529 -73.52712 7202 ft 314 kts 27°
2026-05-06 22:27 40.44359 -73.51166 6916 ft 312 kts 27°
2026-05-06 22:28 40.46234 -73.49788 6642 ft 302 kts 12°
2026-05-06 22:28 40.47556 -73.49388 6482 ft 292 kts
2026-05-06 22:28 40.49563 -73.49094 6245 ft 288 kts 358°
2026-05-06 22:28 40.51554 -73.48863 5990 ft 287 kts 357°
2026-05-06 22:29 40.53538 -73.48644 5739 ft 285 kts 357°
2026-05-06 22:29 40.55512 -73.48433 5490 ft 284 kts 357°
2026-05-06 22:29 40.57484 -73.48231 5241 ft 282 kts 357°
2026-05-06 22:29 40.59435 -73.48043 5001 ft 280 kts 357°
2026-05-06 22:30 40.61372 -73.47865 4751 ft 279 kts 357°
2026-05-06 22:30 40.63306 -73.47690 4500 ft 278 kts 357°
2026-05-06 22:30 40.65232 -73.47517 4246 ft 277 kts 357°
2026-05-06 22:30 40.67149 -73.47350 3991 ft 276 kts 357°
2026-05-06 22:31 40.69066 -73.47177 3744 ft 277 kts 357°
2026-05-06 22:31 40.70969 -73.47007 3572 ft 270 kts 357°
2026-05-06 22:31 40.72814 -73.46844 3447 ft 261 kts 356°
2026-05-06 22:31 40.74543 -73.47089 3324 ft 240 kts 330°
2026-05-06 22:32 40.75796 -73.48292 3199 ft 219 kts 304°
2026-05-06 22:32 40.76667 -73.49901 3022 ft 213 kts 298°
2026-05-06 22:32 40.77463 -73.51535 2846 ft 211 kts 297°
2026-05-06 22:32 40.78234 -73.53184 2652 ft 209 kts 290°
2026-05-06 22:33 40.78544 -73.54997 2485 ft 202 kts 270°
2026-05-06 22:33 40.78589 -73.56848 2356 ft 201 kts 268°
2026-05-06 22:33 40.78605 -73.58698 2232 ft 201 kts 267°
2026-05-06 22:33 40.78598 -73.60545 2115 ft 201 kts 261°
2026-05-06 22:34 40.78133 -73.62211 2037 ft 190 kts 240°
2026-05-06 22:34 40.77447 -73.63673 1998 ft 186 kts 238°
2026-05-06 22:34 40.76745 -73.65082 2003 ft 182 kts 237°
2026-05-06 22:34 40.75991 -73.66423 2008 ft 184 kts 224°
2026-05-06 22:35 40.74916 -73.67355 2005 ft 185 kts 214°
2026-05-06 22:35 40.73819 -73.68205 1995 ft 179 kts 214°
2026-05-06 22:35 40.72764 -73.69029 1890 ft 171 kts 214°
2026-05-06 22:35 40.71765 -73.69811 1706 ft 164 kts 214°
2026-05-06 22:36 40.70805 -73.70563 1489 ft 156 kts 214°
2026-05-06 22:36 40.69898 -73.71274 1289 ft 148 kts 213°
2026-05-06 22:36 40.69031 -73.71953 1108 ft 141 kts 213°
2026-05-06 22:36 40.68219 -73.72588 965 ft 133 kts 214°
2026-05-06 22:37 40.67412 -73.73219 762 ft 134 kts 211°
2026-05-06 22:37 40.66610 -73.73850 567 ft 132 kts 210°
2026-05-06 22:37 40.65821 -73.74468 367 ft 131 kts 209°
2026-05-06 22:37 40.65051 -73.75076 199 ft 131 kts 210°
2026-05-06 22:38 40.64267 -73.75685 41 ft 129 kts 210°
2026-05-06 22:38 40.63604 -73.76203 22 ft 88 kts 211°
2026-05-06 22:38 40.63281 -73.76499 21 ft 21 kts 244°
2026-05-06 22:38 40.63233 -73.76642 20 ft 17 kts 246°
2026-05-06 22:39 40.63264 -73.76781 20 ft 13 kts 302°
2026-05-06 22:39 40.63314 -73.76886 21 ft 14 kts 302°
2026-05-06 22:39 40.63359 -73.76984 21 ft 6 kts 299°
2026-05-06 22:39 40.63384 -73.77042 22 ft 8 kts 301°
2026-05-06 22:40 40.63414 -73.77107 23 ft 9 kts 301°
2026-05-06 22:40 40.63446 -73.77177 25 ft 9 kts 301°
2026-05-06 22:40 40.63485 -73.77262 24 ft 13 kts 301°
2026-05-06 22:40 40.63528 -73.77360 23 ft 11 kts 300°
2026-05-06 22:41 40.63613 -73.77545 22 ft 18 kts 301°
2026-05-06 22:41 40.63690 -73.77565 21 ft 11 kts 31°
2026-05-06 22:41 40.63767 -73.77505 18 ft 14 kts 30°
2026-05-06 22:42 40.63855 -73.77435 20 ft 15 kts 31°
2026-05-06 22:42 40.63945 -73.77365 21 ft 16 kts 30°
2026-05-06 22:42 40.64028 -73.77355 22 ft 11 kts 312°
2026-05-06 22:42 40.64078 -73.77444 22 ft 13 kts 308°
2026-05-06 22:43 40.64148 -73.77530 23 ft 14 kts 327°
2026-05-06 22:43 40.64215 -73.77580 24 ft 11 kts 330°
2026-05-06 22:43 40.64286 -73.77588 23 ft 11 kts 30°
2026-05-06 22:43 40.64353 -73.77537 23 ft 12 kts 33°
2026-05-06 22:44 40.64412 -73.77489 24 ft 8 kts 28°
2026-05-06 22:44 40.64446 -73.77508 23 ft 5 kts 304°
2026-05-06 22:44 40.64454 -73.77527 23 ft 3 kts 300°
2026-05-06 22:44 40.64459 -73.77538 23 ft 0 kts 300°